TimeEST,TemperatureF,Dew PointF,Humidity,Sea Level PressureIn,VisibilityMPH,Wind Direction,Wind SpeedMPH,Gust SpeedMPH,PrecipitationIn,Events,Conditions,WindDirDegrees,DateUTC
12:15 AM,5.0,1.4,85,30.10,10.0,North,4.6,-,N/A,,Overcast,350,2013-02-17 05:15:00
12:35 AM,5.0,1.4,85,30.10,10.0,NNE,5.8,-,N/A,,Overcast,30,2013-02-17 05:35:00
12:55 AM,5.0,1.4,85,30.10,10.0,NE,4.6,-,N/A,,Overcast,50,2013-02-17 05:55:00
1:15 AM,5.0,1.4,85,30.10,10.0,NNE,4.6,-,N/A,,Overcast,30,2013-02-17 06:15:00
1:35 AM,5.0,1.4,85,30.10,10.0,ENE,5.8,-,N/A,,Overcast,70,2013-02-17 06:35:00
1:55 AM,5.0,1.4,85,30.10,10.0,NE,4.6,-,N/A,,Overcast,50,2013-02-17 06:55:00
2:15 AM,3.2,-0.4,85,30.10,10.0,ENE,5.8,-,N/A,,Scattered Clouds,60,2013-02-17 07:15:00
2:35 AM,1.4,-2.2,85,30.10,10.0,East,3.5,-,N/A,,Clear,80,2013-02-17 07:35:00
2:55 AM,1.4,-0.4,92,30.10,10.0,NE,3.5,-,N/A,,Clear,40,2013-02-17 07:55:00
3:15 AM,-0.4,-2.2,92,30.10,10.0,Calm,Calm,-,N/A,,Clear,0,2013-02-17 08:15:00
3:35 AM,-0.4,-2.2,92,30.11,10.0,NE,3.5,-,N/A,,Clear,50,2013-02-17 08:35:00
3:55 AM,-0.4,-2.2,92,30.11,10.0,NE,4.6,-,N/A,,Clear,40,2013-02-17 08:55:00
4:15 AM,-0.4,-2.2,92,30.11,10.0,NNE,5.8,-,N/A,,Partly Cloudy,20,2013-02-17 09:15:00
4:35 AM,-0.4,-2.2,92,30.12,10.0,North,3.5,-,N/A,,Mostly Cloudy,360,2013-02-17 09:35:00
4:55 AM,-0.4,-2.2,92,30.11,10.0,NE,3.5,-,N/A,,Overcast,50,2013-02-17 09:55:00
5:15 AM,-0.4,-2.2,92,30.12,10.0,Calm,Calm,-,N/A,,Overcast,0,2013-02-17 10:15:00
5:35 AM,-0.4,-2.2,92,30.12,10.0,Calm,Calm,-,N/A,,Mostly Cloudy,0,2013-02-17 10:35:00
5:55 AM,-2.2,-2.2,100,30.12,10.0,NE,3.5,-,N/A,,Mostly Cloudy,50,2013-02-17 10:55:00
6:15 AM,-2.2,-4.0,92,30.12,10.0,NE,3.5,-,N/A,,Overcast,50,2013-02-17 11:15:00
6:35 AM,-2.2,-5.8,85,30.12,10.0,ENE,4.6,-,N/A,,Partly Cloudy,60,2013-02-17 11:35:00
6:55 AM,-4.0,-5.8,92,30.13,10.0,Calm,Calm,-,N/A,,Clear,0,2013-02-17 11:55:00
7:15 AM,-4.0,-5.8,92,30.14,10.0,ENE,3.5,-,N/A,,Clear,60,2013-02-17 12:15:00
7:35 AM,-4.0,-5.8,92,30.14,10.0,ENE,3.5,-,N/A,,Clear,60,2013-02-17 12:35:00
7:55 AM,-4.0,-5.8,92,30.14,10.0,ENE,4.6,-,N/A,,Clear,70,2013-02-17 12:55:00
8:15 AM,-2.2,-5.8,85,30.14,10.0,ENE,3.5,-,N/A,,Clear,70,2013-02-17 13:15:00
8:35 AM,-0.4,-4.0,85,30.15,10.0,East,4.6,-,N/A,,Clear,80,2013-02-17 13:35:00
8:55 AM,-0.4,-2.2,92,30.15,10.0,ESE,4.6,-,N/A,,Clear,110,2013-02-17 13:55:00
9:15 AM,3.2,-0.4,85,30.14,10.0,ESE,6.9,-,N/A,,Clear,110,2013-02-17 14:15:00
9:35 AM,3.2,1.4,92,30.14,10.0,East,9.2,-,N/A,,Clear,100,2013-02-17 14:35:00
9:55 AM,6.8,1.4,79,30.15,10.0,SE,3.5,-,N/A,,Clear,140,2013-02-17 14:55:00
10:15 AM,8.6,1.4,73,30.15,10.0,Calm,Calm,-,N/A,,Clear,0,2013-02-17 15:15:00
10:35 AM,15.8,8.6,73,30.15,10.0,Calm,Calm,-,N/A,,Clear,0,2013-02-17 15:35:00
10:55 AM,17.6,3.2,53,30.15,10.0,Calm,Calm,-,N/A,,Clear,0,2013-02-17 15:55:00
11:15 AM,21.2,5.0,50,30.15,10.0,Calm,Calm,-,N/A,,Clear,0,2013-02-17 16:15:00
11:35 AM,24.8,1.4,36,30.15,10.0,Calm,Calm,-,N/A,,Clear,0,2013-02-17 16:35:00
11:55 AM,26.6,1.4,34,30.15,10.0,Calm,Calm,-,N/A,,Clear,0,2013-02-17 16:55:00
12:15 PM,26.6,3.2,37,30.14,10.0,Calm,Calm,-,N/A,,Clear,0,2013-02-17 17:15:00
12:35 PM,24.8,1.4,36,30.14,10.0,Calm,Calm,-,N/A,,Clear,0,2013-02-17 17:35:00
12:55 PM,19.4,3.2,49,30.13,10.0,Calm,Calm,-,N/A,,Clear,0,2013-02-17 17:55:00
1:15 PM,19.4,3.2,49,30.12,10.0,East,4.6,-,N/A,,Clear,80,2013-02-17 18:15:00
1:35 PM,21.2,3.2,46,30.12,10.0,East,3.5,-,N/A,,Clear,80,2013-02-17 18:35:00
1:55 PM,21.2,3.2,46,30.12,10.0,East,3.5,-,N/A,,Clear,90,2013-02-17 18:55:00
2:15 PM,21.2,3.2,46,30.11,10.0,Calm,Calm,-,N/A,,Clear,0,2013-02-17 19:15:00
2:35 PM,24.8,3.2,40,30.10,10.0,West,8.1,-,N/A,,Clear,280,2013-02-17 19:35:00
2:55 PM,21.2,3.2,46,30.10,10.0,West,8.1,-,N/A,,Partly Cloudy,260,2013-02-17 19:55:00
3:15 PM,21.2,3.2,46,30.10,10.0,West,6.9,-,N/A,,Partly Cloudy,280,2013-02-17 20:15:00
3:35 PM,21.2,3.2,46,30.10,10.0,WSW,4.6,-,N/A,,Clear,240,2013-02-17 20:35:00
3:55 PM,19.4,5.0,54,30.09,10.0,South,5.8,-,N/A,,Clear,170,2013-02-17 20:55:00
4:15 PM,19.4,3.2,49,30.09,10.0,South,5.8,-,N/A,,Clear,180,2013-02-17 21:15:00
4:35 PM,17.6,5.0,58,30.09,10.0,South,5.8,-,N/A,,Mostly Cloudy,180,2013-02-17 21:35:00
4:55 PM,17.6,5.0,58,30.09,10.0,SSE,3.5,-,N/A,,Overcast,160,2013-02-17 21:55:00
5:15 PM,17.6,5.0,58,30.09,10.0,SSE,3.5,-,N/A,,Overcast,160,2013-02-17 22:15:00
5:35 PM,17.6,6.8,63,30.08,10.0,SE,5.8,-,N/A,,Overcast,140,2013-02-17 22:35:00
5:55 PM,15.8,3.2,58,30.09,10.0,SSE,6.9,-,N/A,,Mostly Cloudy,160,2013-02-17 22:55:00
6:15 PM,15.8,5.0,62,30.09,10.0,South,3.5,-,N/A,,Clear,180,2013-02-17 23:15:00
6:35 PM,14.0,3.2,62,30.09,10.0,Calm,Calm,-,N/A,,Clear,0,2013-02-17 23:35:00
6:55 PM,12.2,5.0,73,30.09,10.0,Calm,Calm,-,N/A,,Clear,0,2013-02-17 23:55:00
7:15 PM,12.2,6.8,79,30.08,10.0,SSW,3.5,-,N/A,,Mostly Cloudy,200,2013-02-18 00:15:00
7:35 PM,12.2,5.0,73,30.08,10.0,South,3.5,-,N/A,,Overcast,170,2013-02-18 00:35:00
7:55 PM,10.4,5.0,79,30.09,10.0,Calm,Calm,-,N/A,,Partly Cloudy,0,2013-02-18 00:55:00
8:15 PM,8.6,3.2,79,30.08,10.0,SSE,3.5,-,N/A,,Clear,160,2013-02-18 01:15:00
8:35 PM,8.6,3.2,79,30.08,10.0,SE,4.6,-,N/A,,Clear,140,2013-02-18 01:35:00
8:55 PM,8.6,3.2,79,30.08,10.0,SE,5.8,-,N/A,,Clear,140,2013-02-18 01:55:00
9:15 PM,8.6,3.2,79,30.08,10.0,Calm,Calm,-,N/A,,Clear,0,2013-02-18 02:15:00
9:35 PM,8.6,5.0,85,30.08,10.0,SE,4.6,-,N/A,,Clear,130,2013-02-18 02:35:00
9:55 PM,8.6,5.0,85,30.07,10.0,SE,6.9,-,N/A,,Mostly Cloudy,130,2013-02-18 02:55:00
10:15 PM,8.6,6.8,92,30.07,10.0,SE,6.9,-,N/A,,Overcast,130,2013-02-18 03:15:00
10:35 PM,8.6,6.8,92,30.07,10.0,SE,6.9,-,N/A,,Overcast,130,2013-02-18 03:35:00
10:55 PM,10.4,6.8,85,30.07,10.0,SE,6.9,-,N/A,,Overcast,130,2013-02-18 03:55:00
11:15 PM,10.4,6.8,85,30.07,10.0,SE,6.9,-,N/A,,Overcast,130,2013-02-18 04:15:00
11:35 PM,10.4,6.8,85,30.06,10.0,SE,8.1,-,N/A,,Overcast,130,2013-02-18 04:35:00
11:55 PM,10.4,6.8,85,30.05,10.0,SE,10.4,-,N/A,,Overcast,140,2013-02-18 04:55:00